Location: Codford Saint Peter
(51.1597°N, 2.0531°W)
Time: 06:16:57
(UTC+00:00)

X-37B - Visible Passes

Search period start: 27 January 2022 00:00
Search period end: 06 February 2022 00:00
Orbit: 334 x 337 km, 45.0° (Epoch: 11 January)

Date Brightness Start Highest point End Pass type
(mag) Time Alt. Az. Time Alt. Az. Time Alt. Az.
29 Jan 2.7 18:16:53 10° S 18:18:17 13° SSE 18:19:08 12° SE visible
30 Jan 2.3 18:36:18 10° SW 18:38:24 19° SSE 18:38:45 18° SSE visible
31 Jan 2.2 18:56:15 10° SW 18:58:21 23° S 18:58:21 23° S visible
01 Feb 2.5 17:41:44 10° SW 17:43:51 19° SSE 17:45:57 10° ESE visible
01 Feb 2.7 19:16:28 10° WSW 19:17:57 20° SSW 19:17:57 20° SSW visible
02 Feb 2.2 18:01:42 10° SW 18:04:02 23° S 18:06:20 10° ESE visible
02 Feb 3.4 19:36:54 10° WSW 19:37:34 13° SW 19:37:34 13° SW visible
03 Feb 2.2 18:21:55 10° WSW 18:24:14 23° S 18:25:59 14° SE visible
04 Feb 2.6 18:42:20 10° WSW 18:44:26 19° SSW 18:45:41 14° SSE visible
05 Feb 3.1 19:03:13 10° SW 19:04:33 13° SSW 19:05:28 11° S visible
